Location: Bacharowice
(49.9333°N, 19.5833°E)
Time: 06:56:17
(UTC+00:00)

Cosmos 2344 - Pass Details

Date: 25 September 2021
Orbit: 1235 x 3007 km, 63.3° (Epoch: 19 October)

Event Time Altitude Azimuth Distance (km) Brightness Sun altitude
Rises 19:10:54 0° 295° (WNW) 4,216 7.7 -25.1°
Reaches altitude 10° 19:13:50 10° 305° (NW) 3,321 6.8 -25.5°
Maximum altitude 19:21:00 35° 11° (N) 2,216 4.9 -26.5°
Enters shadow 19:27:48 16° 68° (ENE) 3,533 5.6 -27.4°
